Weather History for KSNA - October, 2011

Change the Weather History Date:

Saturday, October 29, 2011

  Actual Average Record
Temperature  
Mean Temperature 65 °F 65 °F  
Max Temperature 78 °F 74 °F 85 °F (2014)
Min Temperature 51 °F 56 °F 46 °F (2009)
Degree Days  
Heating Degree Days 0 2  
Month to date heating degree days 19 20  
Since 1 July heating degree days 19 21  
Cooling Degree Days 0 2  
Month to date cooling degree days 76 82  
Year to date cooling degree days 799 850  
Growing Degree Days 14 (Base 50)    
Moisture  
Dew Point 47 °F    
Average Humidity 51    
Maximum Humidity 66    
Minimum Humidity 35    
Precipitation  
Precipitation 0.00 in 0.04 in 0.30 in (2000)
Month to date precipitation 0.68 0.68  
Year to date precipitation 6.13 9.93  
Since 1 July precipitation 0.78 0.97  
Snow  
Snow 0.00 in - - ()
Month to date snowfall 0.0  
Year to date snowfall 0.0  
Since 1 July snowfall 0.0  
Snow Depth 0.00 in    
Sea Level Pressure  
Sea Level Pressure 30.00 in    
Wind  
Wind Speed 3 mph (SW)    
Max Wind Speed 9 mph    
Max Gust Speed 14 mph    
Visibility 10 miles    
Events      
T = Trace of Precipitation, MM = Missing Value Source: NWS Daily Summary

Daily Weather History Graph

Daily Weather History Graph

Search for Another Location

Airport or City:

Trip Planner

Search our weather history database for the weather conditions in past years. The results will help you decide how hot, cold, wet, or windy it might be!

Date:

Astronomy

Oct. 29, 2011 Rise Set
Actual Time 7:07 AM PDT 6:02 PM PDT
Civil Twilight 6:42 AM PDT 6:27 PM PDT
Nautical Twilight 6:12 AM PDT 6:57 PM PDT
Astronomical Twilight 5:43 AM PDT 7:26 PM PDT
Moon 10:25 AM PDT (10/29) 8:39 PM PDT (10/29)
Length of Visible Light 11h 45m
Length of Day
10h 54m
Waxing Crescent, 12% of the Moon is Illuminated
Oct 29
Waxing Crescent
Nov 2
First Quarter
Nov 10
Full
Nov 18
Last Quarter
Nov 24
New

Hourly Weather History & Observations

Time (PDT) Temp. Dew Point Humidity Pressure Visibility Wind Dir Wind Speed Gust Speed Precip Events Conditions
12:53 AM 55.9 °F 44.1 °F 64% 30.04 in 10.0 mi Calm Calm - N/A   Clear
1:53 AM 55.9 °F 43.0 °F 62% 30.04 in 10.0 mi Calm Calm - N/A   Clear
2:53 AM 55.4 °F 42.8 °F 63% 30.02 in 10.0 mi Calm Calm - N/A   Clear
3:53 AM 54.0 °F 41.0 °F 62% 30.00 in 10.0 mi Calm Calm - N/A   Clear
4:53 AM 53.1 °F 41.0 °F 64% 30.01 in 10.0 mi Calm Calm - N/A   Clear
5:53 AM 52.0 °F 39.0 °F 61% 30.01 in 10.0 mi Calm Calm - N/A   Clear
6:53 AM 52.0 °F 39.0 °F 61% 30.02 in 10.0 mi Calm Calm - N/A   Clear
7:53 AM 53.1 °F 37.9 °F 57% 30.04 in 10.0 mi NNE 3.5 mph - N/A   Clear
8:53 AM 60.1 °F 39.0 °F 46% 30.05 in 10.0 mi Calm Calm - N/A   Scattered Clouds
9:53 AM 64.9 °F 46.9 °F 52% 30.05 in 10.0 mi Variable 3.5 mph - N/A   Scattered Clouds
10:53 AM 70.0 °F 52.0 °F 53% 30.05 in 10.0 mi Variable 3.5 mph - N/A   Scattered Clouds
11:53 AM 73.9 °F 48.0 °F 40% 30.03 in 10.0 mi SSW 8.1 mph - N/A   Scattered Clouds
12:53 PM 73.9 °F 44.1 °F 34% 30.01 in 10.0 mi SSW 9.2 mph - N/A   Partly Cloudy
1:53 PM 75.0 °F 51.1 °F 43% 29.98 in 10.0 mi SSW 8.1 mph - N/A   Partly Cloudy
2:53 PM 75.9 °F 48.9 °F 38% 29.97 in 10.0 mi Variable 4.6 mph - N/A   Clear
3:53 PM 75.2 °F 50.0 °F 41% 29.96 in 10.0 mi SSW 6.9 mph - N/A   Clear
4:53 PM 73.0 °F 46.9 °F 39% 29.96 in 10.0 mi West 4.6 mph - N/A   Clear
5:53 PM 70.0 °F 48.0 °F 46% 29.96 in 10.0 mi WSW 3.5 mph - N/A   Clear
6:53 PM 66.0 °F 50.0 °F 56% 29.97 in 10.0 mi SW 3.5 mph - N/A   Clear
7:53 PM 63.0 °F 55.0 °F 75% 29.98 in 10.0 mi Calm Calm - N/A   Clear
8:53 PM 64.0 °F 52.0 °F 65% 29.98 in 10.0 mi Calm Calm - N/A   Clear
9:53 PM 62.1 °F 52.0 °F 70% 29.99 in 10.0 mi Calm Calm - N/A   Clear
10:53 PM 60.1 °F 55.0 °F 83% 30.00 in 9.0 mi Calm Calm - N/A   Partly Cloudy
11:53 PM 59.0 °F 54.0 °F 83% 29.99 in 7.0 mi Calm Calm - N/A   Clear